Weather in Mykolaivka

Ukraine / Kharkiv Region     49°01′15″N   36°27′14″E
temp.,
°C
wind,
m/s
gust,
m/s
humid.,
%
clouds,
%
prec.,
mm/h
press.,
hPa
HPBL,
m
24 june, thu
thu2400:00+22ne4128010 0.0 1015206
03:00+21ne411785 0.0 1014191
06:00+20ne5117990 0.4 1015183
09:00+25ene6116393 0.4 1015380
12:00+30e61043100 0.0 1016796
15:00+31e594776 0.0 10151155
18:00+30e2561100 0.0 1015222
21:00+24e2275100 0.0 101518
25 june, fri
fri2500:00+22ne237954 0.0 101522
03:00+21ne46839 0.0 101593
06:00+21ne488672 0.0 1014177
09:00+27ne586751 0.0 1013383
12:00+31ene574618 0.0 1013969
15:00+33ene564265 0.0 10131635
18:00+30ne4860100 0.0 1012332
21:00+25ne477716 0.0 101296
26 june, sat
sat2600:00+23ne488697 0.0 1012143
03:00+22ne368721 0.0 1011112
06:00+22ne410865 0.0 1012229
09:00+27ene69635 0.0 1012518
12:00+31e68505 0.0 10111089
15:00+32ene674463 0.0 10101672
18:00+30ene585826 0.0 1010509
21:00+25ene49756 0.0 1010160
27 june, sun
sun2700:00+23ene487912 0.0 1010128
03:00+23ene387796 0.0 1010132
06:00+23ne488168 0.0 1010176
09:00+28ne596210 0.0 1010559
12:00+31ene67495 0.0 10091251
15:00+33e46447 0.0 10091639
18:00+32ese345457 0.0 1007353
21:00+26se336639 0.0 100840
28 june, mon
mon2800:00+20nw6109233 0.1 1009226
03:00+19n11924 0.1 100812
06:00+19w599526 0.9 1009311
09:00+23w458030 0.9 1010571
12:00+27wsw346318 0.0 10101080
15:00+28wsw445940 0.0 10101318
18:00+25w5573100 0.9 1009642
21:00+21w3590100 3.9 1010112